| time (UTC) | temp F | wind direction | speed knots | gust knots | rain 1hr in | rain 24hr in | rain mn in | humidity % | barometer mb |
| 20260906123430 | 69 | 290 | 0.9 | 2.6 | 0.00 | 0.00 | 0.00 | 92 | 1007.9 |
| 20260906122430 | 69 | 287 | 0.9 | 2.6 | 0.00 | 0.00 | 0.00 | 92 | 1007.8 |
| 20260906121430 | 69 | 298 | 0.0 | 2.6 | 0.00 | 0.00 | 0.00 | 92 | 1007.6 |
| 20260906120430 | 69 | 272 | 1.7 | 3.5 | 0.00 | 0.00 | 0.00 | 92 | 1007.5 |
| 20260906115430 | 69 | 325 | 0.0 | 2.6 | 0.00 | 0.00 | 0.00 | 92 | 1007.3 |
| 20260906114430 | 69 | 305 | 0.9 | 2.6 | 0.00 | 0.00 | 0.00 | 92 | 1007.3 |
| 20260906113430 | 69 | 301 | 0.9 | 2.6 | 0.00 | 0.00 | 0.00 | 92 | 1007.0 |
| 20260906112430 | 68 | 313 | 1.7 | 4.3 | 0.00 | 0.00 | 0.00 | 92 | 1006.9 |
| 20260906111430 | 69 | 3 | 1.7 | 2.6 | 0.00 | 0.00 | 0.00 | 92 | 1006.6 |
| 20260906110430 | 69 | 290 | 0.9 | 2.6 | 0.00 | 0.00 | 0.00 | 92 | 1007.0 |
| 20260906105430 | 69 | 311 | 0.9 | 2.6 | 0.00 | 0.00 | 0.00 | 91 | 1007.0 |
| 20260906104430 | 69 | 323 | 0.9 | 1.7 | 0.00 | 0.00 | 0.00 | 90 | 1007.1 |
| 20260906103430 | 69 | 289 | 0.9 | 1.7 | 0.00 | 0.00 | 0.00 | 90 | 1006.9 |
| 20260906102430 | 69 | 302 | 0.9 | 2.6 | 0.00 | 0.00 | 0.00 | 91 | 1006.7 |
| 20260906101430 | 69 | 269 | 0.9 | 2.6 | 0.00 | 0.00 | 0.00 | 90 | 1006.6 |
| 20260906100430 | 70 | 303 | 0.0 | 1.7 | 0.00 | 0.00 | 0.00 | 90 | 1006.6 |
| 20260906095430 | 70 | 296 | 0.9 | 2.6 | 0.00 | 0.00 | 0.00 | 89 | 1006.5 |
| 20260906094430 | 70 | 331 | 0.9 | 3.5 | 0.00 | 0.00 | 0.00 | 89 | 1006.5 |
| 20260906093430 | 70 | 288 | 0.0 | 2.6 | 0.00 | 0.00 | 0.00 | 88 | 1006.3 |
| 20260906092430 | 70 | 301 | 0.9 | 2.6 | 0.00 | 0.00 | 0.00 | 88 | 1006.3 |
| 20260906091430 | 70 | 303 | 0.9 | 2.6 | 0.00 | 0.00 | 0.00 | 88 | 1006.3 |
| 20260906090430 | 70 | 280 | 0.9 | 2.6 | 0.00 | 0.00 | 0.00 | 87 | 1006.1 |
| 20260906085430 | 70 | 272 | 1.7 | 4.3 | 0.00 | 0.00 | 0.00 | 86 | 1006.0 |
| 20260906084430 | 70 | 235 | 1.7 | 5.2 | 0.00 | 0.00 | 0.00 | 85 | 1005.9 |
| 20260906083430 | 70 | 288 | 1.7 | 6.1 | 0.00 | 0.00 | 0.00 | 85 | 1005.9 |
| 20260906082430 | 70 | 321 | 2.6 | 6.1 | 0.00 | 0.00 | 0.00 | 84 | 1005.8 |
| 20260906081430 | 70 | 352 | 4.3 | 6.1 | 0.00 | 0.00 | 0.00 | 86 | 1005.9 |
| 20260906080430 | 70 | 285 | 0.9 | 4.3 | 0.00 | 0.00 | 0.00 | 87 | 1005.9 |
| 20260906075430 | 70 | 352 | 1.7 | 4.3 | 0.00 | 0.00 | 0.00 | 87 | 1005.7 |
| 20260906074430 | 70 | 249 | 1.7 | 4.3 | 0.00 | 0.00 | 0.00 | 88 | 1005.6 |
| 20260906073430 | 70 | 200 | 1.7 | 4.3 | 0.00 | 0.00 | 0.00 | 88 | 1005.7 |
| 20260906072430 | 70 | 128 | 1.7 | 6.1 | 0.00 | 0.00 | 0.00 | 88 | 1005.8 |
| 20260906071430 | 70 | 261 | 0.9 | 6.1 | 0.00 | 0.00 | 0.00 | 88 | 1005.7 |
| 20260906070430 | 71 | 213 | 2.6 | 5.2 | 0.00 | 0.00 | 0.00 | 87 | 1005.8 |
| 20260906065430 | 71 | 23 | 0.9 | 4.3 | 0.00 | 0.00 | 0.00 | 86 | 1005.9 |
| 20260906064430 | 71 | 201 | 3.5 | 5.2 | 0.00 | 0.00 | 0.00 | 85 | 1005.9 |
| 20260906063430 | 72 | 300 | 1.7 | 3.5 | 0.00 | 0.00 | 0.00 | 85 | 1006.0 |
| 20260906062430 | 72 | 289 | 0.9 | 5.2 | 0.00 | 0.00 | 0.00 | 83 | 1006.2 |
| 20260906061430 | 72 | 283 | 0.9 | 5.2 | 0.00 | 0.00 | 0.00 | 83 | 1006.1 |
| 20260906060430 | 72 | 175 | 2.6 | 7.8 | 0.00 | 0.00 | 0.00 | 82 | 1006.2 |
| 20260906055430 | 73 | 290 | 2.6 | 7.8 | 0.00 | 0.00 | 0.00 | 81 | 1006.3 |
| 20260906054430 | 73 | 296 | 3.5 | 7.8 | 0.00 | 0.00 | 0.00 | 81 | 1006.4 |
| 20260906053430 | 73 | 109 | 2.6 | 9.6 | 0.00 | 0.00 | 0.00 | 81 | 1006.4 |
| 20260906052430 | 73 | 270 | 0.9 | 5.2 | 0.00 | 0.00 | 0.00 | 80 | 1006.4 |
| 20260906051430 | 74 | 180 | 1.7 | 7.8 | 0.00 | 0.00 | 0.00 | 79 | 1006.3 |
| 20260906050430 | 74 | 157 | 1.7 | 3.5 | 0.00 | 0.00 | 0.00 | 78 | 1006.3 |
| 20260906045430 | 74 | 157 | 0.9 | 3.5 | 0.00 | 0.00 | 0.00 | 77 | 1006.3 |
| 20260906044430 | 73 | 140 | 1.7 | 4.3 | 0.00 | 0.00 | 0.00 | 78 | 1006.3 |
| 20260906043430 | 73 | 77 | 0.9 | 3.5 | 0.00 | 0.00 | 0.00 | 79 | 1006.3 |
| 20260906042430 | 73 | 132 | 0.9 | 5.2 | 0.00 | 0.00 | 0.00 | 79 | 1006.3 |
| 20260906041430 | 73 | 204 | 1.7 | 7.0 | 0.00 | 0.00 | 0.00 | 79 | 1006.2 |
| 20260906040430 | 74 | 152 | 1.7 | 6.1 | 0.00 | 0.00 | 0.00 | 78 | 1006.5 |
| 20260906035430 | 74 | 121 | 0.9 | 2.6 | 0.00 | 0.00 | 0.00 | 78 | 1006.6 |
| 20260906034430 | 74 | 213 | 1.7 | 3.5 | 0.00 | 0.00 | 0.00 | 78 | 1006.6 |
| 20260906033430 | 74 | 218 | 0.9 | 3.5 | 0.00 | 0.00 | 0.00 | 78 | 1006.6 |
| 20260906032430 | 75 | 348 | 0.9 | 4.3 | 0.00 | 0.00 | 0.00 | 77 | 1006.6 |
| 20260906031430 | 75 | 293 | 0.9 | 2.6 | 0.00 | 0.00 | 0.00 | 76 | 1006.7 |
| 20260906030430 | 75 | 316 | 1.7 | 3.5 | 0.00 | 0.00 | 0.00 | 76 | 1006.7 |
| 20260906025430 | 76 | 314 | 2.6 | 5.2 | 0.00 | 0.00 | 0.00 | 74 | 1006.6 |
| 20260906024431 | 76 | 315 | 1.7 | 6.1 | 0.00 | 0.00 | 0.00 | 74 | 1006.5 |
| 20260906023430 | 77 | 317 | 3.5 | 7.8 | 0.00 | 0.00 | 0.00 | 73 | 1006.6 |
| 20260906022430 | 77 | 316 | 3.5 | 7.8 | 0.00 | 0.00 | 0.00 | 71 | 1006.5 |
| 20260906021430 | 78 | 141 | 2.6 | 3.5 | 0.00 | 0.00 | 0.00 | 69 | 1006.4 |
| 20260906020430 | 78 | 138 | 1.7 | 7.8 | 0.00 | 0.00 | 0.00 | 68 | 1006.3 |
| 20260906015430 | 78 | 131 | 1.7 | 8.7 | 0.00 | 0.00 | 0.00 | 65 | 1006.2 |
| 20260906014430 | 78 | 135 | 0.9 | 7.0 | 0.00 | 0.00 | 0.00 | 66 | 1006.1 |
| 20260906013430 | 78 | 153 | 0.0 | 6.1 | 0.00 | 0.00 | 0.00 | 68 | 1005.9 |
| 20260906012430 | 78 | 128 | 6.1 | 10.4 | 0.00 | 0.00 | 0.00 | 69 | 1005.8 |
| 20260906011430 | 78 | 131 | 0.9 | 4.3 | 0.00 | 0.00 | 0.00 | 69 | 1005.8 |
| 20260906010430 | 79 | 0 | 0.0 | 3.5 | 0.00 | 0.00 | 0.00 | 68 | 1005.7 |
| 20260906005430 | 79 | 0 | 0.0 | 3.5 | 0.00 | 0.00 | 0.00 | 67 | 1005.6 |
| 20260906004430 | 79 | 140 | 0.9 | 1.7 | 0.00 | 0.00 | 0.00 | 67 | 1005.5 |
| 20260906003430 | 80 | 148 | 0.0 | 2.6 | 0.00 | 0.00 | 0.00 | 66 | 1005.3 |
| 20260906002430 | 80 | 0 | 0.0 | 2.6 | 0.00 | 0.00 | 0.00 | 66 | 1005.4 |
| 20260906001430 | 80 | 0 | 0.0 | 6.1 | 0.00 | 0.00 | 0.00 | 66 | 1005.2 |
| 20260906000433 | 80 | 140 | 0.0 | 4.3 | 0.00 | 0.00 | 0.00 | 66 | 1004.9 |
| 20260905235430 | 81 | 144 | 0.0 | 2.6 | 0.00 | 0.00 | 0.00 | 65 | 1004.9 |
| 20260905234430 | 82 | 140 | 0.9 | 2.6 | 0.00 | 0.00 | 0.00 | 63 | 1004.9 |
| 20260905233430 | 83 | 141 | 0.9 | 2.6 | 0.00 | 0.00 | 0.00 | 62 | 1005.0 |
| 20260905232430 | 84 | 98 | 0.9 | 2.6 | 0.00 | 0.00 | 0.00 | 59 | 1005.0 |
| 20260905231430 | 86 | 137 | 0.0 | 4.3 | 0.00 | 0.00 | 0.00 | 56 | 1005.0 |
| 20260905230430 | 86 | 82 | 0.0 | 2.6 | 0.00 | 0.00 | 0.00 | 54 | 1005.0 |
| 20260905225430 | 87 | 46 | 1.7 | 3.5 | 0.00 | 0.00 | 0.00 | 55 | 1005.0 |
| 20260905224430 | 89 | 333 | 0.0 | 2.6 | 0.00 | 0.00 | 0.00 | 51 | 1005.2 |
| 20260905223430 | 89 | 283 | 0.0 | 3.5 | 0.00 | 0.00 | 0.00 | 52 | 1005.1 |
| 20260905222430 | 89 | 33 | 2.6 | 5.2 | 0.00 | 0.00 | 0.00 | 50 | 1005.0 |
| 20260905222027 | 89 | 246 | 0.9 | 2.6 | 0.00 | 0.00 | 0.00 | 50 | 1005.0 |
| 20260905221644 | 89 | 274 | 0.0 | 2.6 | 0.00 | 0.00 | 0.00 | 50 | 1005.0 |
| 20260905220150 | 89 | 44 | 0.9 | 2.6 | 0.00 | 0.00 | 0.00 | 50 | 1004.9 |
| 20260905215309 | 88 | 87 | 0.9 | 5.2 | 0.00 | 0.00 | 0.00 | 51 | 1004.8 |
| 20260905214334 | 87 | 285 | 1.7 | 4.3 | 0.00 | 0.00 | 0.00 | 52 | 1004.8 |
| 20260905213334 | 86 | 285 | 1.7 | 5.2 | 0.00 | 0.00 | 0.00 | 55 | 1004.7 |
| 20260905212334 | 86 | 316 | 0.0 | 6.1 | 0.00 | 0.00 | 0.00 | 56 | 1004.6 |
| 20260905211334 | 86 | 8 | 0.9 | 3.5 | 0.00 | 0.00 | 0.00 | 55 | 1004.5 |
| 20260905210334 | 86 | 17 | 0.9 | 1.7 | 0.00 | 0.00 | 0.00 | 54 | 1004.6 |
| 20260905205334 | 87 | 30 | 0.0 | 2.6 | 0.00 | 0.00 | 0.00 | 54 | 1004.6 |
| 20260905204334 | 88 | 74 | 1.7 | 4.3 | 0.00 | 0.00 | 0.00 | 52 | 1004.7 |
| 20260905203334 | 89 | 37 | 0.9 | 3.5 | 0.00 | 0.00 | 0.00 | 50 | 1004.7 |
| 20260905202334 | 90 | 15 | 1.7 | 6.1 | 0.00 | 0.00 | 0.00 | 49 | 1004.7 |
| 20260905201334 | 89 | 332 | 1.7 | 5.2 | 0.00 | 0.00 | 0.00 | 51 | 1004.5 |
| 20260905200334 | 88 | 325 | 1.7 | 4.3 | 0.00 | 0.00 | 0.00 | 53 | 1004.3 |
| 20260905195334 | 87 | 52 | 1.7 | 8.7 | 0.00 | 0.00 | 0.00 | 55 | 1004.3 |
| 20260905194334 | 89 | 61 | 3.5 | 6.1 | 0.00 | 0.00 | 0.00 | 51 | 1004.5 |
| 20260905193334 | 89 | 329 | 0.9 | 4.3 | 0.00 | 0.00 | 0.00 | 52 | 1004.6 |
| 20260905192334 | 88 | 14 | 2.6 | 7.8 | 0.00 | 0.00 | 0.00 | 52 | 1004.7 |
| 20260905191334 | 87 | 281 | 2.6 | 6.1 | 0.00 | 0.00 | 0.00 | 53 | 1004.9 |
| 20260905190334 | 87 | 292 | 0.9 | 4.3 | 0.00 | 0.00 | 0.00 | 52 | 1005.1 |
| 20260905185334 | 87 | 220 | 0.9 | 4.3 | 0.00 | 0.00 | 0.00 | 55 | 1005.4 |
| 20260905184334 | 88 | 291 | 2.6 | 6.1 | 0.00 | 0.00 | 0.00 | 54 | 1005.6 |
| 20260905183334 | 87 | 315 | 0.9 | 5.2 | 0.00 | 0.00 | 0.00 | 56 | 1005.8 |
| 20260905182334 | 86 | 213 | 1.7 | 6.1 | 0.00 | 0.00 | 0.00 | 57 | 1005.9 |
| 20260905181334 | 85 | 61 | 0.9 | 3.5 | 0.00 | 0.00 | 0.00 | 59 | 1006.0 |
| 20260905180334 | 84 | 54 | 1.7 | 5.2 | 0.00 | 0.00 | 0.00 | 60 | 1006.0 |
| 20260905175334 | 85 | 22 | 0.9 | 3.5 | 0.00 | 0.00 | 0.00 | 59 | 1006.2 |
| 20260905174334 | 86 | 192 | 1.7 | 5.2 | 0.00 | 0.00 | 0.00 | 56 | 1006.3 |
| 20260905173334 | 85 | 69 | 1.7 | 3.5 | 0.00 | 0.00 | 0.00 | 55 | 1006.2 |
| 20260905172334 | 84 | 33 | 0.9 | 2.6 | 0.00 | 0.00 | 0.00 | 57 | 1006.3 |
| 20260905171334 | 84 | 4 | 1.7 | 4.3 | 0.00 | 0.00 | 0.00 | 56 | 1006.2 |
| 20260905170334 | 83 | 314 | 2.6 | 6.1 | 0.00 | 0.00 | 0.00 | 56 | 1005.9 |
| 20260905165334 | 84 | 313 | 3.5 | 4.3 | 0.00 | 0.00 | 0.00 | 58 | 1006.2 |
| 20260905164334 | 84 | 315 | 2.6 | 3.5 | 0.00 | 0.00 | 0.00 | 57 | 1006.6 |
| 20260905163334 | 85 | 314 | 1.7 | 6.1 | 0.00 | 0.00 | 0.00 | 56 | 1006.7 |
| 20260905162334 | 85 | 314 | 2.6 | 5.2 | 0.00 | 0.00 | 0.00 | 56 | 1007.1 |
| 20260905161334 | 83 | 315 | 3.5 | 4.3 | 0.00 | 0.00 | 0.00 | 60 | 1007.0 |
| 20260905160334 | 81 | 314 | 1.7 | 6.1 | 0.00 | 0.00 | 0.00 | 62 | 1007.1 |
| 20260905155334 | 79 | 310 | 2.6 | 3.5 | 0.00 | 0.00 | 0.00 | 68 | 1007.5 |
| 20260905154357 | 78 | 296 | 1.7 | 6.1 | 0.00 | 0.00 | 0.00 | 71 | 1007.7 |
| 20260905153357 | 78 | 315 | 2.6 | 4.3 | 0.00 | 0.00 | 0.00 | 71 | 1007.2 |
| 20260905153108 | 78 | 313 | 3.5 | 4.3 | 0.00 | 0.00 | 0.00 | 72 | 1007.3 |
| 20260905152444 | 78 | 314 | 1.7 | 4.3 | 0.00 | 0.00 | 0.00 | 73 | 1007.6 |
| 20260905152206 | 78 | 315 | 3.5 | 4.3 | 0.00 | 0.00 | 0.00 | 72 | 1007.7 |
| 20260905151904 | 78 | 314 | 3.5 | 4.3 | 0.00 | 0.00 | 0.00 | 71 | 1007.7 |
| 20260905151747 | 78 | 314 | 3.5 | 5.2 | 0.00 | 0.00 | 0.00 | 71 | 1007.7 |
| 20260905151112 | 78 | 314 | 2.6 | 5.2 | 0.00 | 0.00 | 0.00 | 70 | 1007.5 |
| 20260905151021 | 78 | 314 | 2.6 | 5.2 | 0.00 | 0.00 | 0.00 | 70 | 1007.5 |
| 20260905150851 | 78 | 314 | 1.7 | 6.1 | 0.00 | 0.00 | 0.00 | 71 | 1007.5 |
| 20260905145757 | 79 | 316 | 2.6 | 4.3 | 0.00 | 0.00 | 0.00 | 72 | 1007.7 |
| 20260905144757 | 80 | 314 | 3.5 | 4.3 | 0.00 | 0.00 | 0.00 | 72 | 1007.7 |
| 20260905143757 | 81 | 315 | 2.6 | 3.5 | 0.00 | 0.00 | 0.00 | 70 | 1007.5 |
| 20260905142757 | 81 | 316 | 2.6 | 3.5 | 0.00 | 0.00 | 0.00 | 70 | 1007.3 |
| 20260905141757 | 81 | 311 | 1.7 | 3.5 | 0.00 | 0.00 | 0.00 | 69 | 1007.3 |
| 20260905140757 | 80 | 311 | 1.7 | 2.6 | 0.00 | 0.00 | 0.00 | 69 | 1007.1 |
| 20260905135757 | 79 | 312 | 1.7 | 2.6 | 0.00 | 0.00 | 0.00 | 74 | 1007.1 |
| 20260905134757 | 78 | 313 | 1.7 | 1.7 | 0.00 | 0.00 | 0.00 | 73 | 1007.0 |
| 20260905133757 | 77 | 316 | 1.7 | 2.6 | 0.00 | 0.00 | 0.00 | 74 | 1007.0 |
| 20260905132757 | 77 | 316 | 2.6 | 4.3 | 0.00 | 0.00 | 0.00 | 75 | 1006.8 |
| 20260905132526 | 77 | 305 | 1.7 | 2.6 | 0.00 | 0.00 | 0.00 | 73 | 1006.8 |
| 20260905131045 | 77 | 309 | 1.7 | 4.3 | 0.00 | 0.00 | 0.00 | 74 | 1006.9 |
| 20260905130045 | 77 | 319 | 1.7 | 8.7 | 0.00 | 0.00 | 0.00 | 74 | 1006.8 |
| 20260905124237 | 76 | 198 | 1.7 | 7.0 | 0.00 | 0.00 | 0.00 | 73 | 1006.7 |